Flag for Canada Weather past 2 weeks in Pond Inlet, Nunavut, Canada

Now
48 °F

Scattered clouds.


Feels Like: 45 °F
Forecast: 40 / 48 °F
Wind: 7 mph from Northeast

Location: Pond Inlet

Current Time: Jul 4, 2015 at 8:26:40 PM

Latest Report: Jul 4, 2015 at 8:00 PM


Visibility: 9 mi

Pressure: 30.05 "Hg

Humidity: 54%

Dew point: 32 °F

Location of Pond InletLocation

Historic Weather in Pond Inlet — Graph

°F

Pond Inlet temperature yesterday

Maximum temperature yesterday: 55 °F (at 7:00 PM)
Minimum temperature yesterday: 41 °F (at 12:00 AM)
Average temperature yesterday: 48 °F

Past Weeks' High & Low Weather Summary

 TemperatureHumidityPressure
High59 °F (Jun 28, 4:00 PM)93% (Jun 24, 3:00 PM)30.06 "Hg (Jun 24, 3:00 PM)
Low34 °F (Jun 21, 4:00 AM)27% (Jun 28, 12:00 PM)29.58 "Hg (Jun 20, 7:00 PM)
Average44 °F66%29.85 "Hg
* Reported Jun 19 7:00 PM — Jul 4 7:00 PM, Pond Inlet, Weather by CustomWeather, © 2015

Note: Actual official high and low records may vary slightly from our data, if they occured in-between our weather recording intervals... More about our weather records

Advertising

Pond Inlet weather history for previous 24 hours

 ConditionsComfort  
Time TempWeatherWind HumidityBarometerVisibility
7:00 PM
Sat, Jul 4
48 °FScattered clouds.5 mph58%30.05 "Hg9 mi
6:00 PM48 °FPartly sunny.7 mph62%30.05 "Hg9 mi
5:00 PM48 °FPartly sunny.6 mph58%30.04 "Hg40 mi
4:00 PM50 °FBroken clouds.2 mph54%30.04 "Hg40 mi
3:00 PM48 °FPartly sunny.6 mph62%30.03 "Hg40 mi
2:00 PM48 °FPartly sunny.6 mph62%30.03 "Hg40 mi
1:00 PM46 °FScattered clouds.3 mph71%30.02 "Hg9 mi
12:00 PM48 °FOvercast.7 mph66%30.01 "Hg9 mi
11:00 AM46 °FPartly sunny.9 mph66%30.01 "Hg9 mi
10:00 AM48 °FPassing clouds.6 mph66%29.99 "Hg9 mi
9:00 AM46 °FOvercast.3 mph62%29.98 "Hg9 mi
8:00 AM46 °FBroken clouds.3 mph66%29.96 "Hg9 mi
7:00 AM46 °FMostly cloudy.12 mph66%29.94 "Hg9 mi
6:00 AM46 °FOvercast.8 mph66%29.94 "Hg9 mi
5:00 AM45 °FOvercast.16 mph66%29.93 "Hg9 mi
4:01 AM43 °FLight rain. Overcast.15 mph71%29.93 "Hg9 mi
3:00 AM41 °FMore clouds than sun.20 mph70%29.93 "Hg9 mi
2:00 AM41 °FOvercast.20 mph76%29.92 "Hg9 mi
1:00 AM43 °FPartly sunny.22 mph71%29.93 "Hg9 mi
12:00 AM45 °FSunny.20 mph66%29.94 "Hg9 mi
11:00 PM
Fri, Jul 3
45 °FSunny.22 mph66%29.95 "Hg9 mi
10:00 PM46 °FSunny.24 mph62%29.95 "Hg9 mi
9:00 PM46 °FSunny.14 mph66%29.96 "Hg9 mi
8:00 PM55 °FSunny.14 mph44%29.96 "Hg9 mi
Weather by CustomWeather, © 2015

See weather overviewHow to use our weather pages